Weather History for KETB - January, 2014

Change the Weather History Date:

Tuesday, January 7, 2014

  Actual Average (KMKE) Record (KMKE)
Temperature  
Mean Temperature -6 °F 22 °F  
Max Temperature 1 °F 29 °F 63 °F (2008)
Min Temperature -14 °F 16 °F -21 °F (1942)
Degree Days  
Heating Degree Days 72 43  
Month to date heating degree days 296  
Since 1 July heating degree days 2856  
Cooling Degree Days 0 0  
Month to date cooling degree days 0  
Year to date cooling degree days 0  
Moisture  
Dew Point -18 °F    
Average Humidity 60    
Maximum Humidity 71    
Minimum Humidity 51    
Precipitation  
Precipitation 0.00 in 0.06 in 0.50 in (2008)
Month to date precipitation 0.42  
Year to date precipitation 0.42  
Snow  
Snow 0.00 in 0.50 in 7.30 in (2010)
Month to date snowfall 3.2  
Since 1 July snowfall 16.5  
Snow Depth -    
Sea Level Pressure  
Sea Level Pressure 30.15 in    
Wind  
Wind Speed 11 mph (WSW)    
Max Wind Speed 17 mph    
Max Gust Speed 24 mph    
Visibility 10 miles    
Events      
T = Trace of Precipitation, MM = Missing Value Source: NWS Daily Summary

Daily Weather History Graph

Daily Weather History Graph

Search for Another Location

Airport or City:

Trip Planner

Search our weather history database for the weather conditions in past years. The results will help you decide how hot, cold, wet, or windy it might be!

Date:

Astronomy

Jan. 07, 2014 Rise Set
Actual Time 7:24 AM CST 4:33 PM CST
Civil Twilight 6:52 AM CST 5:05 PM CST
Nautical Twilight 6:17 AM CST 5:41 PM CST
Astronomical Twilight 5:42 AM CST 6:15 PM CST
Moon 11:00 AM CST (1/7) No Moon Set
Length of Visible Light 10h 12m
Length of Day
9h 08m
Waxing Crescent, 46% of the Moon is Illuminated
Jan 7
Waxing Crescent
Jan 7
First Quarter
Jan 15
Full
Jan 23
Last Quarter
Jan 30
New

Hourly Weather History & Observations

Time (CST) Temp. Windchill Dew Point Humidity Pressure Visibility Wind Dir Wind Speed Gust Speed Precip Events Conditions
12:15 AM -14.8 °F -39.8 °F -23.8 °F 64% 30.08 in 10.0 mi West 17.3 mph 21.9 mph N/A   Scattered Clouds
12:35 AM -14.8 °F -37.5 °F -25.6 °F 58% 30.08 in 10.0 mi West 13.8 mph 20.7 mph N/A   Clear
12:55 AM -14.8 °F -36.6 °F -25.6 °F 58% 30.08 in 10.0 mi West 12.7 mph 21.9 mph N/A   Clear
1:15 AM -14.8 °F -35.6 °F -25.6 °F 58% 30.08 in 10.0 mi West 11.5 mph 18.4 mph N/A   Clear
1:35 AM -14.8 °F -37.5 °F -25.6 °F 58% 30.09 in 10.0 mi West 13.8 mph 18.4 mph N/A   Clear
1:55 AM -14.8 °F -34.6 °F -25.6 °F 58% 30.09 in 10.0 mi WSW 10.4 mph - N/A   Clear
2:15 AM -14.8 °F -34.6 °F -25.6 °F 58% 30.09 in 10.0 mi WSW 10.4 mph - N/A   Clear
2:35 AM -14.8 °F -36.6 °F -25.6 °F 58% 30.10 in 10.0 mi WSW 12.7 mph 17.3 mph N/A   Clear
2:55 AM -14.8 °F -34.6 °F -25.6 °F 58% 30.10 in 10.0 mi WSW 10.4 mph - N/A   Clear
3:15 AM -14.8 °F -36.6 °F -25.6 °F 58% 30.10 in 10.0 mi WSW 12.7 mph 19.6 mph N/A   Clear
3:35 AM -14.8 °F -35.6 °F -23.8 °F 64% 30.09 in 10.0 mi WSW 11.5 mph - N/A   Clear
3:55 AM -14.8 °F -35.6 °F -23.8 °F 64% 30.10 in 10.0 mi WSW 11.5 mph - N/A   Clear
4:15 AM -14.8 °F -36.6 °F -23.8 °F 64% 30.10 in 10.0 mi WSW 12.7 mph 18.4 mph N/A   Clear
4:35 AM -14.8 °F -34.6 °F -23.8 °F 64% 30.09 in 10.0 mi WSW 10.4 mph 16.1 mph N/A   Clear
4:55 AM -14.8 °F -34.6 °F -23.8 °F 64% 30.10 in 10.0 mi WSW 10.4 mph - N/A   Clear
5:15 AM -14.8 °F -35.6 °F -23.8 °F 64% 30.10 in 10.0 mi WSW 11.5 mph 17.3 mph N/A   Clear
5:35 AM -14.8 °F -32.2 °F -23.8 °F 64% 30.11 in 10.0 mi WSW 8.1 mph 17.3 mph N/A   Clear
5:55 AM -14.8 °F -33.5 °F -23.8 °F 64% 30.12 in 10.0 mi WSW 9.2 mph - N/A   Clear
6:15 AM -14.8 °F -33.5 °F -23.8 °F 64% 30.11 in 10.0 mi WSW 9.2 mph - N/A   Clear
6:35 AM -14.8 °F -33.5 °F -23.8 °F 64% 30.10 in 10.0 mi WSW 9.2 mph - N/A   Clear
6:55 AM -14.8 °F -34.6 °F -23.8 °F 64% 30.10 in 10.0 mi WSW 10.4 mph - N/A   Clear
7:15 AM -14.8 °F -33.5 °F -23.8 °F 64% 30.10 in 10.0 mi West 9.2 mph 17.3 mph N/A   Clear
7:35 AM -14.8 °F -35.6 °F -22.0 °F 70% 30.11 in 10.0 mi WSW 11.5 mph 17.3 mph N/A   Clear
7:55 AM -13.0 °F -30.0 °F -22.0 °F 64% 30.12 in 10.0 mi WSW 8.1 mph - N/A   Clear
8:15 AM -13.0 °F -32.4 °F -22.0 °F 64% 30.13 in 10.0 mi WSW 10.4 mph 18.4 mph N/A   Clear
8:35 AM -13.0 °F -35.2 °F -22.0 °F 64% 30.15 in 10.0 mi WSW 13.8 mph 19.6 mph N/A   Clear
8:55 AM -13.0 °F -35.2 °F -22.0 °F 64% 30.15 in 10.0 mi West 13.8 mph 19.6 mph N/A   Clear
9:15 AM -13.0 °F -34.3 °F -22.0 °F 64% 30.16 in 10.0 mi WSW 12.7 mph 17.3 mph N/A   Clear
9:35 AM -11.2 °F -31.1 °F -22.0 °F 59% 30.16 in 10.0 mi WSW 11.5 mph 21.9 mph N/A   Clear
9:55 AM -9.4 °F -30.6 °F -20.2 °F 59% 30.17 in 10.0 mi WSW 13.8 mph 19.6 mph N/A   Clear
10:15 AM -9.4 °F -29.8 °F -18.4 °F 65% 30.17 in 10.0 mi WSW 12.7 mph - N/A   Clear
10:35 AM -7.6 °F -28.3 °F -18.4 °F 59% 30.16 in 10.0 mi West 13.8 mph 23.0 mph N/A   Clear
10:55 AM -7.6 °F -24.6 °F -18.4 °F 59% 30.16 in 10.0 mi West 9.2 mph 12.7 mph N/A   Clear
11:15 AM -7.6 °F -29.8 °F -18.4 °F 59% 30.15 in 10.0 mi West 16.1 mph 24.2 mph N/A   Clear
11:35 AM -5.8 °F -27.5 °F -16.6 °F 60% 30.13 in 10.0 mi West 16.1 mph - N/A   Clear
11:55 AM -4.0 °F -24.5 °F -16.6 °F 55% 30.13 in 10.0 mi West 15.0 mph - N/A   Clear
12:15 PM -4.0 °F -24.5 °F -16.6 °F 55% 30.13 in 10.0 mi West 15.0 mph 20.7 mph N/A   Clear
12:35 PM -4.0 °F -24.5 °F -14.8 °F 60% 30.12 in 10.0 mi West 15.0 mph - N/A   Clear
12:55 PM -2.2 °F -22.9 °F -14.8 °F 55% 30.12 in 10.0 mi West 16.1 mph - N/A   Clear
1:15 PM -0.4 °F -18.4 °F -14.8 °F 51% 30.12 in 10.0 mi West 12.7 mph 19.6 mph N/A   Clear
1:35 PM -0.4 °F -17.6 °F -13.0 °F 55% 30.12 in 10.0 mi WSW 11.5 mph - N/A   Clear
1:55 PM -0.4 °F -18.4 °F -13.0 °F 55% 30.13 in 10.0 mi WSW 12.7 mph 19.6 mph N/A   Clear
2:15 PM -0.4 °F -19.2 °F -13.0 °F 55% 30.13 in 10.0 mi WSW 13.8 mph 18.4 mph N/A   Clear
2:35 PM -0.4 °F -19.2 °F -13.0 °F 55% 30.12 in 10.0 mi West 13.8 mph 19.6 mph N/A   Clear
2:55 PM 1.4 °F -13.5 °F -13.0 °F 51% 30.12 in 10.0 mi WSW 9.2 mph - N/A   Clear
3:15 PM 1.4 °F -14.5 °F -13.0 °F 51% 30.13 in 10.0 mi WSW 10.4 mph - N/A   Clear
3:35 PM 1.4 °F -12.5 °F -13.0 °F 51% 30.14 in 10.0 mi WSW 8.1 mph - N/A   Clear
3:55 PM 1.4 °F -12.5 °F -13.0 °F 51% 30.14 in 10.0 mi SW 8.1 mph - N/A   Clear
4:15 PM -0.4 °F -12.0 °F -13.0 °F 55% 30.14 in 10.0 mi SW 5.8 mph - N/A   Clear
4:35 PM -0.4 °F -13.4 °F -13.0 °F 55% 30.15 in 10.0 mi SW 6.9 mph - N/A   Clear
4:55 PM -2.2 °F -15.6 °F -14.8 °F 55% 30.15 in 10.0 mi SW 6.9 mph - N/A   Clear
5:15 PM -2.2 °F -14.2 °F -14.8 °F 55% 30.17 in 10.0 mi SW 5.8 mph - N/A   Clear
5:35 PM -4.0 °F -12.4 °F -14.8 °F 60% 30.17 in 10.0 mi SW 3.5 mph - N/A   Clear
5:55 PM -4.0 °F -14.6 °F -14.8 °F 60% 30.17 in 10.0 mi SW 4.6 mph - N/A   Clear
6:15 PM -4.0 °F -14.6 °F -14.8 °F 60% 30.18 in 10.0 mi SW 4.6 mph - N/A   Clear
6:35 PM -4.0 °F -16.3 °F -14.8 °F 60% 30.19 in 10.0 mi SW 5.8 mph - N/A   Clear
6:55 PM -2.2 °F -16.8 °F -14.8 °F 55% 30.20 in 10.0 mi SW 8.1 mph - N/A   Clear
7:15 PM -0.4 °F -14.7 °F -13.0 °F 55% 30.19 in 10.0 mi SW 8.1 mph - N/A   Clear
7:35 PM -0.4 °F -12.0 °F -13.0 °F 55% 30.20 in 10.0 mi SW 5.8 mph - N/A   Clear
7:55 PM -0.4 °F -13.4 °F -13.0 °F 55% 30.20 in 10.0 mi SW 6.9 mph - N/A   Clear
8:15 PM -0.4 °F -13.4 °F -13.0 °F 55% 30.20 in 10.0 mi SW 6.9 mph - N/A   Clear
8:35 PM -0.4 °F -13.4 °F -13.0 °F 55% 30.21 in 10.0 mi SW 6.9 mph - N/A   Clear
8:55 PM -0.4 °F -13.4 °F -11.2 °F 60% 30.22 in 10.0 mi WSW 6.9 mph - N/A   Clear
9:15 PM -0.4 °F -16.7 °F -11.2 °F 60% 30.23 in 10.0 mi SW 10.4 mph - N/A   Clear
9:35 PM -0.4 °F -13.4 °F -9.4 °F 66% 30.24 in 10.0 mi WSW 6.9 mph - N/A   Clear
9:55 PM -0.4 °F -8.3 °F -9.4 °F 66% 30.23 in 10.0 mi WSW 3.5 mph - N/A   Clear
10:15 PM -0.4 °F -13.4 °F -9.4 °F 66% 30.23 in 10.0 mi West 6.9 mph - N/A   Clear
10:35 PM -0.4 °F -10.4 °F -9.4 °F 66% 30.24 in 10.0 mi WSW 4.6 mph - N/A   Clear
10:55 PM -0.4 °F - -9.4 °F 66% 30.24 in 10.0 mi Calm Calm - N/A   Clear
11:15 PM -0.4 °F -8.3 °F -11.2 °F 60% 30.24 in 10.0 mi SW 3.5 mph - N/A   Clear
11:35 PM -2.2 °F -10.4 °F -9.4 °F 71% 30.23 in 10.0 mi WSW 3.5 mph - N/A   Clear
11:55 PM -2.2 °F - -9.4 °F 71% 30.23 in 10.0 mi Calm Calm - N/A   Clear